Location: Roanoke
(37.2710°N, 79.9420°W)
Time: 19:32:13
(UTC-05:00)

Vanguard 1 Rocket - All Passes

Search period start: 20 November 2019 00:00
Search period end: 30 November 2019 00:00
Orbit: 651 x 4226 km, 34.3° (Epoch: 19 November)

Date Brightness Start Highest point End Pass type
(mag) Time Alt. Az. Time Alt. Az. Time Alt. Az.
20 Nov - 02:34:30 10° SW 02:38:58 31° SSE 02:42:51 10° E night (unlit)
20 Nov - 04:59:00 10° W 05:03:19 63° S 05:08:51 10° E visible
20 Nov - 07:23:10 10° W 07:28:10 44° SSW 07:36:28 10° SE daylight
20 Nov - 09:48:42 10° WSW 09:54:21 20° SSW 10:02:43 10° SSE daylight
21 Nov - 01:23:44 10° SSW 01:28:09 21° SSE 01:31:39 10° ESE night (unlit)
21 Nov - 03:48:11 10° WSW 03:52:38 54° S 03:57:12 10° E visible
21 Nov - 06:12:41 10° W 06:17:11 54° S 06:23:52 10° ESE visible
21 Nov - 08:37:18 10° WSW 08:42:34 27° SSW 08:50:52 10° SSE daylight
22 Nov - 00:13:23 10° S 00:17:01 14° SSE 00:19:58 10° SE night (unlit)
22 Nov - 02:37:04 10° SW 02:41:58 41° SSE 02:46:05 10° E night (unlit)
22 Nov - 05:02:05 10° W 05:06:23 61° S 05:11:46 10° ESE visible
22 Nov - 07:26:30 10° W 07:31:13 34° SSW 07:38:38 10° SE daylight
22 Nov - 09:53:41 10° SW 09:57:28 13° SSW 10:02:13 10° S daylight
23 Nov - 01:25:42 10° SW 01:31:10 29° SSE 01:35:12 10° E night (unlit)
23 Nov - 03:51:09 10° WSW 03:55:42 60° S 04:00:14 10° E visible
23 Nov - 06:15:53 10° W 06:20:13 44° SSW 06:26:28 10° ESE visible
23 Nov - 08:41:16 10° WSW 08:45:40 19° SSW 08:51:52 10° SSE daylight
24 Nov - 00:14:20 10° SSW 00:20:06 22° SSE 00:24:12 10° ESE night (unlit)
24 Nov - 02:39:47 10° WSW 02:45:00 50° S 02:49:15 10° E night (unlit)
24 Nov - 05:05:11 10° W 05:09:27 55° S 05:14:38 10° ESE visible
24 Nov - 07:30:00 10° WSW 07:34:17 25° SSW 07:40:30 10° SSE daylight
24 Nov - 23:03:27 10° S 23:08:40 16° SSE 23:12:34 10° ESE night (unlit)
25 Nov - 01:28:00 10° SW 01:34:13 39° SSE 01:38:32 10° E night (unlit)
25 Nov - 03:54:09 10° W 03:58:45 61° S 04:03:16 10° E visible
25 Nov - 06:19:08 10° W 06:23:15 34° SSW 06:28:54 10° SE visible
25 Nov - 08:46:20 10° SW 08:48:46 12° SSW 08:51:39 10° S daylight
25 Nov - 21:54:41 10° SSE 21:56:47 11° SSE 21:58:40 10° SE visible
26 Nov - 00:15:59 10° SW 00:23:10 30° SSE 00:27:51 10° E night (unlit)
26 Nov - 02:42:36 10° WSW 02:48:04 59° S 02:52:21 10° E night (unlit)
26 Nov - 05:08:18 10° W 05:12:29 45° SSW 05:17:26 10° ESE visible
26 Nov - 07:33:52 10° WSW 07:37:21 17° SSW 07:41:53 10° SSE daylight
26 Nov - 23:04:02 10° SSW 23:11:46 23° SSE 23:16:52 10° ESE night (unlit)
27 Nov - 01:30:31 10° WSW 01:37:15 49° S 01:41:45 10° E night (unlit)
27 Nov - 03:57:10 10° W 04:01:49 58° S 04:06:16 10° ESE visible
27 Nov - 06:22:33 10° WSW 06:26:17 25° SSW 06:31:05 10° SSE visible
27 Nov - 21:52:41 10° S 21:59:55 17° SSE 22:05:06 10° ESE visible
28 Nov - 00:18:00 10° SW 00:26:14 40° SSE 00:31:14 10° E night (unlit)
28 Nov - 02:45:30 10° W 02:51:08 63° S 02:55:27 10° E night (unlit)
28 Nov - 05:11:29 10° W 05:15:31 36° SSW 05:20:06 10° SE visible
28 Nov - 07:39:11 10° SW 07:40:25 11° SSW 07:41:46 10° SSW daylight
28 Nov - 20:43:25 10° S 20:47:36 12° SSE 20:51:08 10° SE visible
28 Nov - 23:05:19 10° SW 23:14:51 32° SSE 23:20:33 10° E visible
29 Nov - 01:33:10 10° WSW 01:40:18 59° S 01:44:55 10° E night (unlit)
29 Nov - 04:00:12 10° W 04:04:53 51° SSW 04:09:12 10° ESE visible
29 Nov - 06:26:19 10° WSW 06:29:18 17° SSW 06:32:50 10° SSE visible
29 Nov - 21:52:53 10° SSW 22:03:01 25° SSE 22:09:25 10° ESE visible
